Regional Weather Roundup
Issued by NWS

Home | Current Version | Previous Version | Text Only | Print | Product List | Glossary On
Versions: 1 2 3 4 5 6 7 8 9 10 11 12 13 14 15 16 17 18 19 20 21 22 23 24 25 26 27 28 29 30 31 32 33 34 35 36 37 38 39 40 41 42 43 44 45 46 47 48 49 50
415
ASUS44 KJAN 291010
RWRMS

MISSISSIPPI HOURLY WEATHER ROUNDUP
NATIONAL WEATHER SERVICE JACKSON MS
500 AM CDT TUE JUL 29 2014

NOTE: "FAIR: INDICATES FEW OR NO CLOUDS BELOW 12,000 FEET WITH NO
SIGNIFICANT WEATHER AND/OR OBSTRUCTIONS TO VISIBILITY.

MSZ001>002-007>008-010>013-018>021-025>028-034>036-291100-
NORTHWEST MISSISSIPPI

CITY           SKY/WX    TMP DP  RH WIND       PRES   REMARKS
CLARKSDALE     FAIR      72  68  88 N7        30.06R
CLEVELAND      FAIR      67  66  99 CALM      30.04R
GREENWOOD      CLEAR     65  63  93 CALM      30.03S FOG
GREENVILLE     CLEAR     66  64  94 CALM      30.04R
GRENADA        CLOUDY    64  64 100 CALM      30.04S
OLIVE BRANCH   CLEAR     66  64  94 CALM      30.07S
OXFORD         FAIR      66  63  88 CALM      30.07R
TUNICA         MOSUNNY   70  64  83 N7        30.07R
$$

MSZ003>006-009-014>017-022>024-029>033-037>039-291100-
NORTHEAST MISSISSIPPI

CITY           SKY/WX    TMP DP  RH WIND       PRES   REMARKS
BELMONT        FAIR      64  62  93 CALM      30.04S
COLUMBUS AFB   CLEAR     65  63  93 NW3       30.03R
CORINTH        FAIR      63  59  88 CALM      30.05S
GOLDN TRIANGLE CLEAR     64  61  88 CALM      30.03S
STARKVILLE     FAIR      63  63 100 CALM      30.03S
TUPELO         CLEAR     66  62  87 NE6       30.03S
$$

MSZ040-058-291100-
CENTRAL MISSISSIPPI

CITY           SKY/WX    TMP DP  RH WIND       PRES   REMARKS
JACKSON INTL   CLEAR     66  64  93 CALM      30.03R
JACKSON HAWKNS CLEAR     68  63  84 CALM      30.03S
MERIDIAN KEY   CLEAR     65  63  93 N3        30.01S
MERIDIAN NAS   CLEAR     66  63  90 NW3       30.01S
RAYMOND        FAIR      64  59  82 CALM      30.04S
VICKSBURG      CLEAR     64  62  93 CALM      30.04R
$$

MSZ059>079-291100-
SOUTH MISSISSIPPI

CITY           SKY/WX    TMP DP  RH WIND       PRES   REMARKS
BROOKHAVEN     FAIR      66  64  94 CALM      30.05R
COLUMBIA       FAIR      66  66 100 CALM      30.00R
HATTIESBURG    PTCLDY    71  68  90 NW3       30.00F
MCCOMB         PTCLDY    71  65  81 CALM      30.03R
NATCHEZ        MOCLDY    68  64  88 CALM      30.05R
PINE BELT      PTCLDY    66  63  88 N7        30.01S
$$

MSZ080>082-291100-
COASTAL MISSISSIPPI

CITY           SKY/WX    TMP DP  RH WIND       PRES   REMARKS
BILOXI         CLEAR     75  68  79 VRB3      29.98R
PASCAGOULA     CLEAR     72  68  87 N3        29.97S
GULFPORT       CLEAR     78  67  68 N6        29.97S
$$



USA.gov is the U.S. government's official web portal to all federal, state and local government web resources and services.